Wind_Speed
21 21 20 21 21 20 18 17 15 16 14 14 13 12 12 13 12 12 12 14 14 13 12 11 12 13 14 13 13 11 15 20 18 18 19 14 16 14 16 18 16 16 19 20 25
24 23 23 21 20 19 18 17 16 16 16 15 14 14 13 13 14 15 14 15 15 15 14 12 11 10 7 9 10 11 16 18 17 18 12 16 18 20 21 21 22 21 20 19 19
25 22 20 17 15 16 17 17 17 17 17 16 16 15 15 14 14 19 16 15 13 11 10 10 10 11 13 14 13 14 20 19 21 17 20 23 24 23 25 25 21 22 22 23 25
26 24 20 16 14 15 15 17 18 18 18 17 18 17 16 14 6 8 7 9 12 14 15 16 15 14 13 13 13 22 19 20 20 19 25 30 30 32 30 31 28 26 30 34 34
29 26 24 20 16 17 17 16 17 19 18 18 19 19 18 15 18 17 19 19 18 17 16 15 15 16 12 13 16 22 22 21 25 29 29 29 30 29 32 30 29 31 34 34 34
29 28 27 23 19 20 21 17 16 17 21 19 19 20 20 18 22 19 19 18 17 17 16 16 17 18 19 20 19 17 27 29 28 24 24 24 24 24 25 23 24 28 27 26 27
29 28 30 27 24 23 23 21 17 14 17 21 23 23 23 25 23 21 18 19 18 17 18 18 19 18 22 18 20 23 25 24 24 18 18 21 24 18 10 13 19 24 23 24 24
31 32 30 27 26 27 26 22 23 17 16 18 22 24 24 24 24 21 19 20 17 16 17 16 15 18 19 20 22 19 17 16 9 10 15 16 22 18 13 19 23 26 29 30 30
39 35 36 37 30 31 29 26 25 22 21 21 21 23 17 23 22 21 18 17 15 13 14 16 16 17 19 12 15 15 11 10 18 16 16 16 25 20 25 27 26 25 25 27 29
48 45 37 38 34 33 31 28 27 26 24 21 23 19 23 17 16 13 13 13 12 14 17 14 13 10 11 8 14 13 17 17 20 18 23 27 31 25 24 24 23 21 20 19 22
46 49 49 48 45 39 36 32 31 31 28 22 19 21 27 18 15 16 13 11 13 14 7 11 9 13 11 9 12 12 16 18 18 20 20 25 34 26 21 13 8 11 17 34 36
47 47 46 48 45 42 44 35 37 29 18 22 27 27 25 21 17 17 14 11 10 7 10 9 10 10 16 9 10 12 17 16 17 11 23 27 33 26 11 6 11 20 27 40 42
48 45 44 49 50 53 39 42 35 40 22 23 24 25 25 21 12 12 12 10 9 11 10 12 9 15 14 8 11 13 17 17 18 19 22 21 25 13 2 9 19 20 39 47 49
50 47 44 49 46 50 47 38 33 29 17 17 27 26 26 19 15 14 14 11 10 7 10 10 13 10 8 10 9 12 10 14 16 18 19 17 25 18 15 18 24 38 50 49 51
51 51 44 44 47 47 41 40 35 31 1 12 21 23 23 22 15 15 15 11 9 8 8 4 6 8 8 7 6 8 13 17 20 18 22 20 14 2 18 26 35 46 48 46 46
53 52 45 43 43 42 38 39 30 12 8 20 23 27 24 23 14 11 11 10 11 9 10 12 10 7 6 7 8 11 14 18 17 10 9 12 11 6 20 27 38 47 43 44 43
56 53 46 42 42 42 39 37 18 8 12 23 23 27 24 21 16 13 12 9 7 6 11 8 7 6 6 5 5 5 12 11 6 8 10 12 13 6 18 24 36 39 42 41 39
59 56 45 42 43 44 39 40 10 15 23 11 24 26 25 21 17 15 12 12 9 7 6 11 8 10 7 3 3 4 5 8 7 10 15 24 1 7 15 23 29 32 34 35 37
61 55 51 47 42 44 41 25 21 15 25 21 25 29 21 24 17 16 16 14 10 7 7 8 8 9 6 4 2 3 3 6 8 14 17 20 8 5 20 25 28 31 33 35 36
58 54 47 54 46 42 44 34 26 19 21 27 23 29 24 27 17 22 19 15 12 10 10 6 5 8 6 4 8 7 7 6 5 5 9 6 7 13 28 29 29 31 33 34 35
50 51 52 46 49 49 45 31 22 22 23 30 16 23 22 27 18 22 17 12 13 12 9 6 5 6 5 7 4 4 2 4 11 15 8 8 4 15 20 23 27 29 30 31 31
53 52 52 52 38 41 35 29 20 24 25 25 16 14 21 22 20 16 19 8 16 12 6 7 6 6 5 6 6 4 1 5 6 11 14 18 3 11 16 18 22 24 26 26 27
56 53 42 46 36 45 25 25 20 28 20 16 16 14 19 23 15 16 15 14 19 13 10 6 4 5 7 5 9 4 4 9 14 17 19 8 5 11 14 15 19 23 23 24 25
56 38 48 49 37 37 26 21 25 24 20 17 13 16 21 21 11 19 18 19 17 15 14 10 7 6 3 3 4 4 6 9 11 14 7 3 1 12 15 17 19 19 21 22 25
45 42 51 52 30 36 33 27 29 27 17 18 15 18 21 18 14 19 18 18 18 16 12 6 5 6 6 5 7 6 1 6 4 6 4 3 5 13 15 18 20 21 20 20 23
46 48 43 39 32 32 31 31 29 19 24 20 17 20 19 16 12 23 20 17 13 17 10 6 6 5 3 3 11 6 4 1 2 3 3 5 6 12 12 13 16 20 20 19 20
34 41 42 41 47 39 29 30 26 22 16 14 15 18 15 15 11 17 15 15 11 13 9 6 6 3 4 6 6 7 8 9 2 1 2 2 6 10 10 12 14 19 21 21 21
Wind_Direction
277 284 287 286 285 283 286 288 287 281 277 276 273 268 270 278 281 280 283 287 288 289 288 285 286 285 282 275 265 265 255 262 273 278 277 266 266 275 285 282 278 275 260 263 261
273 280 286 279 279 276 276 279 282 282 279 277 275 275 273 274 284 281 284 284 285 286 285 284 281 284 284 277 265 246 260 267 275 280 274 268 273 284 283 281 280 279 275 283 272
267 270 275 271 276 276 275 274 274 274 274 275 275 274 278 283 289 277 281 278 280 281 284 286 285 281 274 266 265 266 264 273 275 277 269 277 280 285 284 281 281 283 278 271 267
258 265 263 261 270 277 285 282 275 274 271 272 273 275 275 279 272 280 276 267 275 282 283 285 284 287 281 268 269 264 277 276 277 273 278 284 286 283 282 282 285 284 281 284 283
258 254 255 255 268 275 274 293 280 269 268 271 273 277 276 276 265 276 279 282 282 285 286 283 283 283 279 267 268 274 281 273 278 285 286 288 286 285 284 287 283 282 285 286 285
254 252 249 253 266 277 280 277 285 270 267 269 272 275 275 273 275 279 281 281 283 285 285 290 291 291 287 282 279 272 281 287 290 289 289 287 289 290 294 289 282 290 289 288 288
245 248 258 257 263 275 274 277 284 284 271 268 270 272 273 264 272 274 277 278 281 284 289 291 293 292 289 292 277 292 292 291 287 269 286 286 295 299 289 306 300 301 297 292 288
250 244 253 260 263 270 268 268 275 277 286 282 273 270 266 269 270 274 277 275 279 282 284 288 288 288 286 285 291 289 286 280 255 294 296 303 291 294 280 300 302 298 291 291 289
247 239 252 257 260 268 262 261 268 268 282 280 279 270 265 267 265 267 268 271 281 278 280 289 293 295 294 300 293 255 288 272 287 299 295 296 292 298 298 302 300 297 295 294 297
244 243 243 255 259 260 256 257 265 262 273 276 271 265 258 266 263 259 260 267 277 290 296 292 314 298 287 281 288 301 291 282 290 292 290 293 294 302 306 301 299 303 302 303 302
246 243 245 250 254 250 255 251 263 262 253 254 258 244 252 259 260 258 259 262 280 287 271 270 282 266 271 258 274 280 284 290 292 293 292 300 302 311 314 321 276 311 296 303 301
246 244 244 243 239 245 245 256 255 246 253 250 247 243 248 254 249 248 252 260 264 256 256 276 275 242 269 275 282 281 286 290 293 299 303 304 304 312 322 247 281 285 291 311 308
250 245 242 242 239 241 247 245 255 254 238 251 239 240 245 238 224 224 230 242 256 256 253 251 272 262 272 270 284 285 285 293 292 298 303 298 300 307 23 304 265 281 310 323 324
251 247 240 239 241 241 242 247 243 222 226 227 236 224 227 217 220 205 228 233 253 245 249 250 245 254 274 273 272 282 287 293 297 302 294 297 292 280 305 308 328 325 321 327 322
250 247 239 243 244 237 236 247 236 233 164 195 198 219 213 201 211 228 238 234 219 248 231 232 248 265 266 251 268 272 289 291 293 291 291 283 251 243 334 324 321 331 329 326 323
248 248 241 228 231 234 234 243 210 169 238 191 194 195 192 194 197 204 224 219 218 226 237 236 256 237 240 264 283 285 300 295 281 282 254 234 236 342 2 345 330 328 333 332 327
242 243 242 235 225 227 229 230 162 219 185 192 184 179 184 189 193 196 192 191 201 208 223 226 226 228 213 298 280 323 315 296 240 212 255 355 314 32 355 353 337 337 340 334 336
237 237 229 227 228 225 235 198 161 207 225 205 166 169 180 179 195 189 192 200 197 199 220 212 199 203 209 255 263 299 306 312 309 307 319 308 163 104 13 354 346 349 345 342 343
227 227 223 216 221 224 235 186 203 207 204 174 161 169 179 182 178 184 194 205 198 188 209 213 226 202 212 228 242 245 254 300 289 283 266 269 72 204 340 356 351 353 355 353 355
217 211 215 213 218 222 223 215 205 171 196 177 166 182 181 187 182 179 181 198 194 197 195 215 229 215 224 230 246 235 299 288 265 288 309 274 86 336 351 352 353 354 359 358 360
203 194 206 208 212 212 194 204 188 189 189 184 189 177 188 186 184 184 186 178 186 200 192 193 206 199 238 217 227 233 259 292 290 266 274 295 88 353 346 347 353 354 358 1 1
190 191 202 201 183 203 196 189 178 182 184 199 184 181 182 179 183 181 188 187 184 185 174 191 199 222 198 221 190 185 12 345 299 285 300 298 99 354 348 349 351 356 360 2 4
187 190 189 185 176 186 184 182 184 179 177 178 179 176 177 170 175 180 177 182 190 182 178 190 203 207 183 186 220 236 303 330 303 277 270 279 118 349 346 350 354 356 358 1 3
190 155 165 181 181 187 170 178 173 178 184 178 183 170 169 172 170 178 176 182 187 185 180 176 204 222 271 270 234 281 303 324 302 279 305 83 323 337 344 351 358 1 356 358 1
193 183 179 181 182 170 169 178 169 173 172 167 169 177 173 169 162 168 174 181 186 187 177 167 212 214 239 244 242 265 275 334 312 329 348 78 340 342 348 352 358 1 358 357 358
191 186 178 181 176 170 174 180 183 178 175 178 177 167 173 178 176 171 174 175 176 183 187 206 214 211 237 207 221 211 209 33 321 342 20 67 343 344 350 356 359 4 5 2 359
173 186 181 177 173 168 170 172 177 179 173 184 194 188 178 174 165 167 164 177 180 171 181 190 196 182 184 179 204 191 219 212 201 54 5 28 339 356 354 347 360 8 3 6 6
Height
3132 3132 3132 3132 3132 3132 3132 3131 3129 3130 3128 3127 3127 3127 3127 3128 3127 3127 3128 3128 3127 3128 3128 3128 3128 3129 3129 3130 3130 3133 3135 3132 3132 3132 3132 3133 3131 3131 3130 3128 3128 3128 3127 3128 3125
3128 3128 3128 3127 3127 3128 3128 3129 3128 3128 3127 3126 3125 3125 3125 3125 3125 3124 3125 3125 3125 3125 3125 3125 3126 3127 3128 3128 3129 3129 3130 3129 3130 3128 3127 3127 3126 3126 3125 3124 3124 3124 3123 3121 3119
3124 3124 3124 3124 3124 3125 3124 3126 3125 3125 3124 3124 3123 3123 3123 3123 3123 3120 3121 3122 3122 3123 3123 3123 3123 3125 3126 3128 3127 3126 3124 3126 3125 3124 3120 3119 3118 3119 3117 3117 3119 3118 3116 3114 3112
3119 3120 3120 3120 3121 3122 3123 3122 3122 3122 3121 3120 3121 3120 3120 3121 3125 3118 3119 3120 3120 3121 3121 3121 3122 3122 3124 3125 3124 3119 3120 3119 3117 3116 3113 3112 3111 3110 3110 3109 3110 3108 3106 3106 3105
3113 3114 3117 3117 3118 3119 3119 3119 3118 3119 3118 3117 3118 3118 3118 3119 3117 3117 3116 3116 3117 3118 3119 3119 3119 3119 3120 3120 3117 3113 3114 3112 3110 3108 3107 3105 3104 3103 3102 3104 3103 3103 3100 3099 3099
3107 3109 3111 3112 3113 3116 3116 3115 3116 3114 3115 3114 3113 3115 3115 3115 3114 3114 3113 3113 3113 3114 3115 3116 3115 3115 3113 3112 3111 3110 3107 3105 3104 3102 3102 3100 3099 3098 3099 3099 3097 3096 3095 3095 3094
3101 3103 3106 3108 3108 3110 3111 3113 3112 3111 3111 3110 3110 3110 3110 3109 3109 3110 3110 3109 3110 3112 3111 3112 3111 3111 3109 3109 3106 3105 3102 3102 3101 3100 3098 3095 3095 3096 3096 3093 3092 3092 3091 3090 3090
3093 3096 3099 3102 3103 3104 3106 3108 3108 3107 3107 3106 3106 3105 3104 3105 3105 3105 3106 3105 3106 3107 3108 3107 3107 3106 3106 3104 3102 3101 3101 3100 3096 3096 3097 3094 3092 3095 3093 3091 3089 3088 3085 3083 3081
3086 3089 3093 3096 3098 3099 3100 3101 3104 3103 3103 3102 3102 3101 3099 3099 3100 3101 3101 3101 3101 3103 3104 3104 3103 3103 3101 3100 3102 3098 3097 3097 3096 3094 3092 3091 3087 3090 3089 3085 3084 3083 3081 3078 3076
3077 3082 3082 3087 3090 3093 3094 3096 3097 3098 3099 3098 3097 3100 3093 3094 3095 3095 3097 3098 3098 3100 3100 3100 3098 3098 3099 3100 3097 3096 3095 3095 3093 3094 3089 3085 3081 3083 3084 3081 3079 3077 3074 3071 3069
3066 3071 3075 3077 3084 3087 3090 3091 3093 3094 3092 3094 3093 3090 3088 3090 3092 3091 3093 3095 3095 3096 3098 3098 3097 3097 3096 3093 3093 3093 3092 3092 3091 3089 3084 3080 3073 3077 3076 3076 3068 3064 3063 3059 3055
3055 3060 3065 3067 3073 3077 3080 3082 3085 3083 3085 3084 3086 3086 3085 3086 3088 3087 3091 3093 3092 3095 3095 3096 3093 3090 3090 3089 3089 3089 3087 3088 3087 3084 3082 3077 3069 3069 3072 3064 3061 3060 3056 3051 3044
3043 3048 3055 3059 3063 3067 3071 3077 3076 3075 3075 3077 3080 3080 3081 3084 3085 3084 3087 3088 3089 3091 3092 3092 3092 3085 3086 3088 3088 3086 3084 3084 3085 3081 3078 3073 3068 3068 3065 3058 3056 3055 3051 3041 3031
3031 3037 3044 3047 3055 3058 3062 3072 3068 3066 3069 3070 3071 3074 3074 3079 3079 3079 3080 3086 3085 3087 3088 3087 3083 3083 3085 3085 3085 3083 3081 3080 3080 3079 3074 3073 3062 3067 3059 3053 3051 3046 3041 3031 3021
3018 3024 3033 3041 3046 3050 3062 3062 3058 3064 3058 3064 3062 3064 3068 3076 3071 3073 3075 3078 3083 3083 3084 3084 3081 3081 3081 3082 3080 3080 3077 3075 3074 3073 3070 3066 3065 3057 3053 3048 3043 3039 3032 3022 3013
3007 3013 3023 3030 3035 3044 3050 3051 3049 3062 3056 3059 3052 3054 3063 3068 3069 3068 3072 3075 3076 3077 3079 3080 3079 3079 3081 3079 3077 3076 3074 3070 3068 3067 3061 3055 3058 3058 3054 3050 3041 3035 3027 3016 3006
2996 3001 3014 3022 3028 3036 3038 3042 3044 3057 3050 3050 3043 3047 3057 3061 3066 3069 3070 3072 3075 3076 3077 3078 3078 3078 3077 3077 3076 3075 3072 3063 3058 3056 3049 3050 3052 3059 3055 3049 3040 3031 3020 3011 3001
2982 2991 3003 3012 3020 3026 3028 3034 3034 3038 3047 3039 3036 3045 3052 3055 3062 3065 3068 3071 3068 3070 3074 3073 3077 3077 3074 3074 3074 3073 3073 3069 3063 3052 3050 3051 3048 3058 3055 3048 3040 3031 3022 3012 3001
2969 2980 2996 3004 3011 3016 3022 3024 3019 3031 3042 3039 3039 3044 3047 3052 3055 3060 3065 3068 3067 3067 3072 3073 3073 3072 3071 3071 3074 3071 3071 3070 3067 3060 3054 3046 3049 3051 3047 3043 3037 3029 3020 3010 2999
2956 2974 2985 2996 3004 3008 3014 3014 3020 3026 3034 3035 3032 3039 3041 3046 3051 3052 3058 3062 3062 3063 3066 3070 3071 3070 3070 3070 3071 3069 3069 3067 3065 3060 3052 3040 3050 3051 3041 3038 3034 3028 3018 3009 3001
2954 2969 2978 2988 2996 2999 3002 3012 3011 3023 3029 3035 3030 3031 3038 3043 3047 3049 3055 3058 3059 3062 3064 3067 3069 3069 3068 3068 3067 3067 3066 3067 3065 3062 3053 3045 3053 3050 3045 3040 3034 3028 3020 3012 3005
2949 2960 2970 2978 2988 2989 2999 3004 3014 3021 3027 3028 3028 3033 3035 3039 3045 3048 3051 3054 3056 3059 3063 3064 3066 3065 3065 3066 3065 3064 3065 3065 3064 3056 3051 3048 3054 3050 3046 3041 3036 3029 3022 3015 3009
2946 2958 2967 2974 2977 2985 2996 3004 3010 3016 3020 3022 3025 3030 3034 3037 3043 3047 3049 3050 3053 3056 3062 3062 3064 3062 3062 3065 3063 3062 3061 3062 3063 3061 3052 3051 3052 3048 3045 3041 3035 3029 3024 3018 3012
2941 2950 2963 2969 2974 2984 2992 2999 3006 3012 3015 3018 3023 3027 3032 3035 3037 3043 3044 3047 3051 3055 3056 3058 3061 3059 3059 3059 3059 3060 3060 3060 3060 3057 3049 3049 3050 3046 3043 3039 3035 3030 3025 3019 3013
2933 2942 2948 2960 2973 2982 2987 3000 3001 3006 3008 3015 3021 3026 3029 3033 3035 3038 3041 3045 3049 3053 3054 3056 3057 3058 3058 3057 3056 3057 3058 3057 3058 3055 3052 3050 3048 3045 3041 3038 3033 3029 3024 3019 3013
2931 2939 2952 2961 2971 2980 2988 2993 3001 3005 3006 3013 3018 3021 3028 3029 3032 3034 3038 3043 3047 3050 3053 3053 3055 3055 3054 3053 3052 3056 3057 3058 3057 3055 3051 3050 3048 3045 3041 3037 3034 3029 3024 3019 3013
2932 2941 2952 2958 2969 2977 2982 2989 2999 3001 3006 3010 3016 3022 3025 3029 3031 3036 3040 3044 3046 3048 3051 3052 3053 3052 3050 3052 3053 3056 3054 3054 3053 3051 3051 3049 3047 3044 3041 3037 3033 3029 3024 3019 3015